Theta_e
317 317 317 316 317 317 317 317 317 317 318 318 318 319 319 319 320 320 320 320 319 320 320 319 319 319 320 319 319 319 318 320 318 318 317 320 327 346 345 339 342 355 365 351 350 346 342 344 343 347 341 337 336 335 341 342 345 340 331 328 323 325 322 324 323 324 326 326 329 331 333 330 330 337 341 343 339 339 339 338 341 343 341 346 348 348 348 348
317 316 316 316 316 316 317 317 317 317 318 318 318 318 319 319 319 319 320 319 319 319 319 319 319 319 319 319 319 319 319 320 317 316 316 328 335 342 351 344 348 359 364 345 341 339 338 339 341 341 337 331 341 334 342 337 345 334 330 328 324 326 327 330 329 329 328 326 329 330 333 332 331 336 341 335 335 337 335 338 340 339 343 347 347 347 347 347
317 317 316 316 316 316 316 316 316 317 317 317 318 318 318 318 319 319 319 319 319 319 318 318 318 319 319 319 319 319 320 316 317 315 322 341 337 343 349 347 352 364 349 340 337 338 337 338 341 337 336 332 335 334 337 336 340 337 331 327 325 329 329 331 331 330 332 331 327 327 331 332 335 336 343 332 334 337 334 335 337 338 340 342 345 345 346 345
316 316 316 316 315 316 316 316 316 317 317 317 317 318 318 318 318 318 319 319 319 319 319 318 318 318 319 319 320 320 319 319 312 315 333 353 344 345 341 351 361 366 344 338 335 335 338 341 340 337 332 331 333 338 330 337 333 337 332 326 330 333 329 331 333 333 332 331 327 327 330 330 335 338 338 333 331 333 334 338 338 338 341 342 345 345 345 344
315 315 315 315 315 315 315 316 316 317 317 317 317 317 318 318 318 318 318 318 318 318 318 318 318 318 319 319 318 322 317 308 312 329 335 351 346 345 343 353 364 355 338 334 333 333 336 338 336 334 331 326 331 333 333 336 338 337 331 333 333 333 329 333 333 334 333 332 328 328 327 328 337 337 336 334 330 325 331 337 341 342 344 344 343 344 345 344
315 315 315 315 315 315 316 316 316 316 317 317 317 317 317 317 318 318 318 318 318 318 318 318 318 318 318 319 319 321 312 300 313 326 341 356 348 345 344 356 364 344 335 330 328 330 334 335 333 329 328 324 329 325 331 335 339 325 332 333 335 335 333 337 336 334 334 332 328 326 330 331 332 332 336 335 333 332 339 338 342 344 346 346 346 345 344 344
314 314 314 314 314 315 315 315 316 316 316 316 316 317 317 317 316 317 317 317 317 317 318 318 318 318 318 318 319 319 312 309 314 334 351 351 348 346 346 358 367 342 332 329 327 330 333 332 331 327 326 323 329 326 328 331 338 330 324 330 333 334 333 336 336 337 336 332 329 330 331 328 330 326 334 333 336 336 341 342 344 346 348 347 344 345 343 344
314 314 314 314 314 315 315 315 315 316 316 316 316 316 317 317 316 316 317 317 317 317 318 318 318 318 318 318 318 310 308 308 316 325 347 358 347 349 346 347 348 338 330 328 327 329 331 330 327 329 324 321 326 327 331 332 335 329 326 328 330 334 334 335 335 334 333 332 333 332 327 326 329 329 331 332 335 338 342 345 346 348 347 346 345 344 345 345
313 313 313 314 314 314 314 315 315 315 315 315 316 316 316 316 316 316 317 317 317 317 318 318 318 319 319 318 313 305 305 315 318 318 318 329 330 339 333 337 340 333 331 329 330 329 330 329 329 329 320 322 328 326 332 327 325 331 329 331 331 331 332 332 331 330 329 330 330 327 326 327 328 332 329 331 336 339 343 346 347 347 346 345 344 345 345 345
313 313 313 313 314 314 314 315 315 315 315 315 315 315 315 315 315 316 317 317 318 319 318 318 319 318 317 317 310 302 310 318 320 320 331 326 333 336 332 336 336 334 328 327 329 327 327 328 328 330 328 325 329 325 332 327 321 332 331 330 329 329 330 330 327 328 329 328 329 326 325 324 327 326 323 333 337 341 343 345 346 345 344 344 344 345 346 346
313 313 313 313 313 314 314 315 315 315 315 315 315 315 315 315 315 316 316 318 319 321 320 319 319 318 313 315 305 303 317 323 331 333 334 334 336 332 331 336 337 330 327 328 328 328 328 329 330 331 328 322 327 322 325 328 327 326 326 326 326 327 328 327 326 325 326 323 326 326 323 324 324 325 324 328 338 343 342 344 345 345 345 345 345 345 347 347
313 313 313 313 313 313 314 314 314 315 315 314 314 314 315 315 314 315 317 319 322 323 320 319 319 319 317 311 306 307 319 331 332 336 337 338 334 332 334 338 334 330 327 326 327 328 329 327 329 329 314 323 319 322 322 328 328 325 325 318 319 321 319 322 321 322 324 321 324 323 320 319 321 322 329 330 341 343 342 343 344 344 345 345 346 345 347 347
313 313 313 313 313 313 314 314 314 314 314 314 314 314 314 314 314 316 319 321 322 321 320 320 320 320 316 306 309 315 317 330 332 337 340 339 337 337 337 335 333 330 328 328 326 329 329 328 329 325 320 321 319 314 322 326 324 322 320 317 315 315 315 319 322 322 322 323 324 322 311 315 320 327 329 333 342 341 340 342 343 343 345 345 346 345 347 348
313 313 313 313 313 314 314 314 314 314 313 314 313 313 313 312 314 317 320 318 318 318 320 322 320 318 316 308 312 315 317 323 327 327 332 331 325 327 331 333 331 330 331 329 329 332 328 331 329 326 323 319 316 325 318 320 322 315 317 317 311 310 312 321 320 321 318 323 321 322 312 315 319 326 328 336 341 339 338 341 342 343 344 345 345 345 346 348
313 313 313 313 313 313 313 313 313 312 313 313 313 312 311 312 316 320 320 319 319 321 321 322 321 316 309 310 316 317 329 317 315 319 329 320 318 321 328 331 329 330 330 329 328 329 329 328 326 320 317 323 321 317 313 314 316 316 312 309 312 310 313 318 319 318 317 319 321 320 313 315 319 325 329 337 338 338 337 340 341 342 343 344 345 345 345 346
312 312 313 313 313 313 313 313 312 312 313 312 311 311 313 314 319 321 321 322 322 322 322 317 317 318 317 308 312 330 318 310 310 316 324 324 318 318 325 327 328 329 329 324 330 330 330 328 320 319 319 320 316 313 311 310 311 314 311 309 309 311 312 315 318 320 320 320 322 319 314 317 318 325 332 337 335 336 336 338 340 342 343 344 344 345 346 346
312 312 312 313 313 313 313 312 312 312 311 311 310 311 314 315 320 322 323 323 322 323 322 315 316 320 305 314 319 312 315 316 317 315 316 321 319 318 322 324 322 323 324 323 323 326 324 322 323 321 321 316 314 312 307 305 306 308 312 309 312 311 313 311 316 317 318 317 316 319 315 317 319 324 332 334 333 335 334 337 340 342 343 345 345 345 345 346
312 312 312 313 313 313 313 311 312 311 310 309 309 311 311 317 322 321 322 323 326 325 324 324 315 317 310 315 307 309 315 316 318 318 315 316 317 315 321 319 321 321 319 318 321 318 321 317 320 313 315 314 313 309 304 301 305 306 307 307 309 313 314 313 313 316 317 318 315 317 317 318 319 322 329 332 333 333 333 336 339 341 343 344 344 344 345 346
312 312 312 312 312 312 312 311 311 310 309 309 311 314 314 314 323 325 321 322 318 317 310 308 310 304 305 310 314 314 314 319 320 320 317 316 315 316 323 321 320 316 312 313 314 316 318 315 317 311 307 308 309 309 307 308 309 308 309 308 310 309 311 311 316 317 316 314 314 315 314 316 318 320 327 331 332 332 333 336 339 341 342 345 344 344 345 346
312 312 312 312 312 312 312 311 310 309 308 309 314 315 319 307 310 316 317 316 310 310 312 310 313 314 314 312 312 316 320 319 314 317 320 320 313 317 317 318 317 316 313 308 312 314 317 308 307 306 307 309 310 311 311 311 310 309 309 309 309 310 312 316 317 316 316 314 314 315 316 316 317 318 322 330 332 333 333 334 338 341 341 343 343 344 345 347
312 312 312 312 312 311 311 310 310 308 309 311 313 308 301 300 298 299 302 304 307 308 307 308 309 313 313 316 315 314 311 313 316 316 320 321 317 315 313 316 313 309 310 312 311 315 314 306 307 309 309 311 311 311 311 310 309 308 308 307 307 310 309 315 316 318 317 313 314 317 315 315 317 319 319 327 329 329 331 333 337 339 341 343 344 344 345 348
312 312 312 311 311 311 310 310 308 309 307 315 310 305 305 304 306 308 305 299 305 308 308 308 309 308 313 315 318 317 313 310 311 315 321 320 315 311 313 312 310 307 311 311 312 309 306 304 308 311 311 312 312 311 310 309 307 308 307 308 307 308 311 314 316 316 316 314 313 315 314 315 318 319 321 322 328 330 331 333 336 340 341 342 343 344 346 347
312 312 312 312 310 310 310 308 308 306 313 310 306 306 304 309 312 313 308 302 301 308 306 307 306 306 308 312 314 316 309 308 307 313 317 318 313 312 312 309 309 309 311 310 306 306 303 306 310 312 312 310 310 311 309 308 308 306 305 304 304 310 308 307 313 315 316 315 313 316 313 314 317 320 320 321 328 331 332 333 335 338 340 342 343 345 345 346
312 312 312 311 310 310 309 307 306 310 310 309 307 305 309 312 312 311 306 300 299 305 308 309 308 308 308 307 313 312 308 309 311 310 319 318 311 312 312 310 309 308 308 309 308 307 305 309 312 311 311 310 308 310 308 306 304 306 306 305 305 307 309 309 311 312 314 314 314 313 311 311 315 315 317 320 325 329 331 332 334 338 340 343 344 346 347 346
312 312 312 311 310 309 307 306 307 306 310 310 306 309 311 313 313 312 304 303 304 304 312 310 311 310 311 317 315 309 310 311 312 315 318 318 314 311 310 313 310 306 308 309 309 308 308 312 313 310 309 310 309 307 307 306 303 305 307 306 307 308 307 309 311 311 309 309 314 311 305 307 314 316 316 319 323 326 330 332 333 336 339 342 342 344 347 347
312 312 312 310 310 309 307 307 306 309 308 306 306 309 311 312 313 313 306 297 294 303 306 303 311 306 316 308 311 311 312 306 313 315 317 318 321 313 312 309 311 305 308 309 308 309 309 313 312 310 309 309 308 306 307 308 304 303 305 309 308 308 308 308 308 308 304 303 311 315 305 304 314 314 317 319 324 326 330 332 334 337 339 341 342 343 345 345
312 311 311 310 310 307 306 301 308 309 303 303 309 311 311 312 316 311 301 297 295 305 302 305 307 307 312 310 310 312 300 305 315 315 315 319 315 320 310 308 310 311 312 312 308 305 310 311 311 311 309 308 306 304 307 308 304 302 309 309 309 307 306 307 308 307 306 311 312 312 310 305 305 312 318 321 322 324 328 331 334 335 340 339 342 342 345 345
312 311 310 309 308 307 308 308 308 304 303 307 310 311 311 314 315 311 301 289 291 309 302 304 306 313 310 310 312 308 307 311 306 310 316 318 318 315 312 308 307 308 311 309 300 309 310 308 309 308 308 307 305 307 309 310 306 305 309 310 309 309 308 307 307 306 306 306 303 308 312 305 305 311 318 318 316 320 324 328 333 335 338 340 341 342 344 346
311 310 310 309 307 306 311 309 308 304 308 310 310 311 311 314 309 303 296 289 305 304 311 302 311 309 308 310 308 310 309 309 304 311 315 317 317 315 308 311 311 310 311 310 305 309 311 311 311 311 308 305 308 310 310 310 306 309 310 311 311 310 309 308 305 305 305 304 300 305 309 304 304 311 313 316 315 316 320 324 330 335 336 339 339 342 343 346
310 310 310 309 308 310 309 310 309 310 310 310 310 312 312 311 307 294 291 286 306 299 305 304 304 302 307 304 304 307 306 307 307 308 313 311 313 316 314 317 311 309 307 310 310 310 311 316 316 312 309 310 310 312 312 311 311 313 310 308 308 307 307 307 306 306 304 298 300 305 308 306 300 308 310 312 313 317 318 321 325 333 336 338 340 341 342 344
309 309 308 308 307 308 308 305 306 309 311 312 311 310 311 308 297 291 286 295 302 302 306 304 302 305 303 302 301 305 306 307 306 308 306 312 310 311 312 309 313 309 307 307 306 308 310 311 310 312 314 313 312 310 312 313 313 310 307 306 305 304 306 305 304 306 298 296 303 307 306 307 298 304 311 315 318 319 320 319 321 325 334 337 339 339 340 343
308 307 308 308 309 311 304 301 308 311 312 311 309 306 304 292 295 288 290 301 292 300 301 300 304 304 302 304 302 303 303 305 307 306 305 306 306 305 306 303 306 301 300 301 301 306 304 306 310 312 316 312 309 307 309 311 311 308 307 306 299 298 299 296 300 295 295 295 303 305 306 302 301 307 312 315 316 318 321 321 321 324 332 337 339 340 340 342
307 306 305 310 311 309 308 309 312 312 311 309 305 304 297 290 285 292 293 298 294 300 300 304 301 302 302 301 302 304 305 302 306 306 308 307 307 306 308 307 309 306 299 303 302 301 302 308 308 309 311 313 311 303 304 304 306 306 304 302 298 296 295 291 296 299 299 302 305 305 307 301 306 310 314 313 316 318 320 323 323 323 326 336 339 341 339 342
306 306 310 311 309 309 310 313 311 311 308 308 303 298 293 286 286 299 295 300 298 303 302 300 301 302 302 300 303 304 300 304 305 304 307 305 305 304 305 308 309 306 306 306 301 301 297 297 303 307 304 312 309 308 308 306 306 305 308 304 302 301 297 294 296 294 295 299 303 305 301 300 301 305 313 315 317 318 320 321 323 324 324 332 339 340 340 341
305 309 311 311 310 310 309 310 311 311 308 303 298 292 286 286 291 291 295 297 299 300 298 303 299 299 300 302 303 304 303 301 304 304 303 304 302 305 304 304 308 309 307 302 305 304 301 301 307 310 310 311 307 310 312 309 307 308 308 308 303 301 306 299 302 300 299 299 299 302 300 305 305 314 316 318 317 318 318 318 319 321 322 324 333 335 336 338
307 310 310 308 306 308 309 310 311 311 307 299 292 288 286 290 289 297 294 300 299 296 297 301 300 297 298 301 302 302 305 302 303 303 302 304 306 304 308 307 307 309 306 302 306 301 303 300 309 309 311 310 309 311 310 312 300 306 306 301 303 310 307 302 303 303 303 302 299 306 303 305 310 311 314 315 315 316 317 318 318 320 322 325 328 333 336 337
308 309 305 305 306 308 310 311 312 310 306 297 290 285 291 293 298 297 300 296 297 298 297 293 296 296 297 298 300 300 302 303 302 301 299 304 302 304 305 305 308 309 310 309 305 310 302 302 309 308 305 310 313 312 311 312 312 308 301 305 310 312 309 304 297 301 298 294 297 302 300 303 302 300 311 311 311 313 314 315 317 320 322 324 328 333 336 337
307 307 306 305 305 309 311 312 311 308 302 295 289 290 295 291 298 298 300 299 298 298 295 294 296 298 296 297 298 299 301 299 301 301 299 302 298 303 303 303 306 306 307 311 307 308 309 302 305 308 308 310 312 311 309 312 313 309 306 313 304 299 298 304 302 294 295 294 296 299 302 302 304 305 311 311 310 311 314 316 316 317 319 322 327 331 336 338
307 304 299 303 307 308 310 311 310 307 299 292 290 288 293 295 298 297 299 299 299 296 293 295 295 298 298 295 298 299 300 297 301 300 299 300 298 301 301 302 303 307 308 309 307 309 309 302 303 309 308 310 310 308 301 305 310 312 313 308 311 308 303 300 301 303 302 297 298 298 301 299 308 308 310 311 314 315 314 315 316 317 318 321 326 328 331 336
302 299 297 305 307 309 311 308 304 302 295 289 290 292 296 292 296 299 299 298 296 296 295 295 297 295 297 297 298 296 300 299 299 300 300 300 298 300 300 304 301 305 308 309 308 311 306 309 300 305 310 309 302 306 304 306 303 304 305 305 306 306 310 308 306 302 300 298 298 299 297 303 311 313 311 312 315 317 317 317 318 318 319 320 324 327 330 335
304 299 298 306 307 309 308 304 298 293 292 294 294 292 294 292 295 296 299 300 298 301 297 296 296 294 296 295 295 299 298 299 299 298 300 299 299 296 301 301 303 304 309 308 308 309 306 305 301 304 304 303 305 310 309 309 309 306 305 304 306 303 302 299 298 306 303 300 296 298 297 307 309 312 313 313 315 315 316 317 319 322 321 324 324 328 332 335
299 292 295 306 308 308 303 294 295 297 293 290 290 292 291 297 294 296 297 299 298 296 301 297 298 296 296 296 297 297 297 297 299 299 299 298 298 299 299 303 304 307 308 304 305 310 310 309 304 302 303 304 307 311 313 313 312 310 308 305 308 307 306 302 295 301 304 303 304 303 300 304 315 315 315 315 315 315 317 316 317 319 322 323 325 327 334 340
297 295 304 307 308 305 299 294 295 294 292 293 296 295 296 295 294 296 295 297 295 297 297 296 296 295 297 296 297 297 298 296 298 298 299 299 298 299 301 302 305 308 309 308 308 306 313 306 302 303 307 308 310 312 312 312 311 308 308 309 308 305 306 304 303 307 303 303 300 300 299 304 313 318 316 315 318 316 318 317 318 318 320 323 326 329 337 342
297 297 300 307 307 305 296 287 287 289 292 293 293 293 295 294 294 293 294 295 295 294 294 296 297 298 295 299 298 295 299 292 298 297 298 300 298 301 301 302 305 305 304 303 304 308 302 306 304 300 301 302 303 307 307 310 310 307 306 308 309 309 308 308 308 308 303 304 303 300 296 303 312 317 320 317 316 316 316 317 319 319 321 321 324 333 338 343
298 301 301 302 305 303 292 293 291 290 290 290 290 290 292 292 294 295 294 293 297 293 293 294 297 297 297 299 297 298 299 296 296 299 299 298 298 301 301 301 304 304 304 305 307 308 304 305 303 298 295 293 292 293 296 300 303 307 309 309 309 307 307 305 301 304 297 306 307 301 302 309 313 316 315 315 315 317 318 317 317 320 324 325 328 331 337 340
294 289 294 297 299 300 297 298 295 292 290 290 289 291 293 290 294 294 294 294 296 294 294 295 296 297 296 296 295 295 295 299 296 297 298 298 299 300 301 301 302 303 306 306 306 307 306 307 307 305 303 301 303 306 306 309 306 302 304 306 307 308 309 308 306 303 300 304 303 306 307 308 310 311 312 314 316 316 316 318 318 320 324 330 339 335 335 342
298 290 290 288 295 298 293 295 293 293 289 292 287 291 290 291 293 293 297 289 294 294 295 295 292 292 293 293 293 293 295 295 298 297 295 297 299 300 301 301 302 304 305 304 306 306 305 303 304 306 305 304 302 303 304 305 305 305 304 304 306 307 307 306 303 301 310 304 298 307 311 306 309 311 313 314 315 317 317 319 320 323 329 325 325 343 342 335
290 293 295 296 289 287 288 291 293 293 294 293 290 293 290 290 291 289 294 295 295 296 293 294 292 292 291 290 293 291 293 294 296 294 297 297 298 300 299 301 300 302 303 302 306 303 302 300 303 302 301 301 301 302 304 304 305 305 306 305 305 306 307 305 305 307 308 303 302 309 311 309 310 311 313 315 316 317 316 318 320 322 321 324 334 329 323 326
297 296 296 299 290 292 291 292 294 292 292 292 291 292 289 289 289 291 291 292 293 291 293 286 288 290 291 292 291 289 292 290 291 295 295 296 296 297 297 299 300 302 302 301 302 304 302 300 302 301 299 299 301 301 303 303 303 304 305 305 306 306 306 306 306 307 307 308 308 309 312 310 311 313 314 315 318 317 317 319 320 320 318 322 322 327 324 323
293 293 292 296 295 292 293 293 292 292 290 291 288 291 289 290 289 292 293 292 289 290 294 289 289 290 291 291 292 289 291 292 291 289 296 295 296 298 297 298 298 301 301 298 300 303 299 299 299 299 298 299 301 302 301 302 302 302 304 305 305 306 306 307 306 307 308 307 307 308 309 309 314 318 317 318 319 318 318 317 317 320 320 319 320 320 323 322
299 302 300 293 289 291 292 292 291 291 289 292 290 290 290 291 290 292 292 295 292 289 291 290 293 291 291 291 291 291 294 294 294 294 296 297 293 298 295 298 300 296 298 298 300 299 300 297 299 299 296 298 300 300 301 301 301 301 301 303 304 304 303 305 304 307 306 306 308 307 306 307 313 316 317 318 318 319 319 318 318 318 318 319 319 320 322 324
304 306 303 297 289 293 290 292 292 290 287 291 290 290 289 290 292 294 290 294 295 296 294 293 294 292 291 291 290 292 295 296 296 297 298 299 300 300 300 300 299 297 297 298 300 297 298 297 296 297 294 296 300 300 299 299 299 297 299 302 304 305 306 307 308 309 308 309 306 304 305 312 315 317 315 317 316 316 316 316 318 319 322 320 321 321 321 322
Wind_Speed
21 21 21 21 21 22 22 22 21 21 21 21 21 22 22 21 21 21 20 21 21 19 18 18 18 17 17 16 15 15 15 11 10 10 11 22 5 13 10 9 17 14 15 15 16 16 16 15 15 13 11 9 7 7 7 8 4 5 6 5 5 2 2 5 4 6 2 6 4 4 5 4 5 7 6 6 7 6 9 7 7 6 2 5 12 19 21 21
22 22 22 22 23 22 22 23 22 21 22 21 22 22 23 23 23 22 21 22 21 20 20 18 17 17 16 15 14 13 13 11 13 15 23 7 12 14 12 17 18 17 18 16 19 18 17 16 15 16 11 9 7 7 9 6 7 7 5 6 4 1 7 2 5 5 5 6 5 1 3 5 4 7 8 7 8 9 10 8 9 8 8 11 16 20 21 22
21 22 23 22 23 23 23 23 24 22 21 22 22 23 23 24 24 24 22 22 21 20 19 17 17 16 15 14 12 12 12 12 13 18 18 12 18 15 14 19 21 21 19 17 17 17 16 17 15 16 11 8 8 8 10 6 8 9 7 5 5 1 3 0 1 2 4 5 5 4 1 5 3 5 8 6 6 9 9 9 10 11 12 14 18 20 21 22
23 23 23 23 23 23 23 23 22 22 22 23 24 24 24 23 23 24 24 22 21 19 17 17 15 14 13 13 10 11 9 12 13 7 8 5 14 15 16 20 23 24 19 15 15 15 13 15 16 16 11 9 9 8 10 8 7 7 9 7 1 2 5 3 2 1 3 5 6 5 2 4 4 4 6 5 4 7 7 9 12 14 15 18 19 21 21 22
23 23 24 24 23 23 24 23 23 22 23 24 24 25 25 24 24 25 23 22 21 19 18 16 14 13 12 10 10 8 8 9 1 9 9 10 14 17 19 22 22 22 18 14 13 14 15 17 17 15 11 10 10 9 10 10 10 4 9 9 5 3 5 6 1 1 4 5 5 3 2 1 3 6 8 7 5 2 4 8 11 12 17 20 21 21 21 22
24 24 24 25 25 24 24 23 23 23 23 23 25 25 26 25 25 24 24 23 21 20 17 16 12 11 11 8 10 7 5 5 5 6 7 8 15 16 18 20 22 20 17 15 14 14 16 16 17 13 11 11 13 11 11 12 12 9 10 10 9 7 8 2 3 2 4 6 6 5 2 2 7 6 8 9 10 1 4 4 10 12 17 18 19 20 20 22
25 25 25 25 25 25 24 24 24 24 23 23 25 25 26 26 26 24 23 21 19 19 17 14 12 10 9 10 8 5 10 14 4 9 9 11 16 17 17 19 21 19 16 16 16 15 17 17 18 15 12 12 12 13 9 13 12 12 8 5 8 8 11 7 8 8 8 8 8 6 6 8 6 10 7 10 9 8 2 4 10 13 16 18 20 21 21 21
25 25 25 26 25 25 25 25 25 25 25 25 26 26 26 28 27 25 24 22 22 20 18 14 11 8 7 7 5 7 11 15 14 7 11 12 14 17 18 20 22 18 17 19 18 18 18 19 19 14 12 12 9 14 8 10 13 13 12 11 8 7 7 7 9 10 10 10 8 8 10 10 9 9 6 10 10 9 5 9 12 16 17 18 19 20 20 20
25 26 26 27 26 27 26 26 27 26 26 26 26 26 28 26 25 25 25 23 21 19 16 13 11 9 9 7 7 10 14 16 10 9 7 9 9 18 20 16 21 19 18 18 20 18 18 16 17 15 10 14 7 13 11 9 10 15 15 8 7 8 8 9 10 11 10 7 7 9 12 10 10 9 13 9 10 10 9 13 15 17 18 18 19 20 20 20
26 26 27 28 26 27 27 27 27 27 27 27 27 27 27 27 24 25 24 22 20 17 12 11 10 10 8 7 7 11 3 5 2 4 3 6 11 19 23 19 23 20 18 18 18 19 19 14 18 15 6 10 6 10 10 13 1 4 12 13 12 11 10 10 12 11 9 9 8 10 11 10 7 8 6 10 10 12 13 14 16 17 18 18 18 18 18 20
25 25 27 27 27 27 28 28 28 28 28 28 29 28 27 25 24 24 23 21 18 14 10 11 12 13 9 8 11 12 4 3 3 3 3 7 15 19 21 17 22 19 20 19 19 20 19 15 17 8 6 8 9 9 12 10 12 5 4 7 10 10 11 12 13 13 9 9 10 12 13 10 8 9 9 3 13 16 15 16 17 16 16 16 18 18 17 17
25 26 28 27 27 27 27 28 28 28 28 29 28 27 26 24 24 23 21 20 17 11 9 11 17 9 8 7 14 12 5 3 1 2 6 9 12 15 16 15 19 19 19 18 20 20 19 15 15 12 7 7 10 7 12 9 8 10 9 11 12 11 12 12 13 12 9 10 8 7 12 13 10 14 14 8 15 17 16 17 18 17 16 17 17 17 16 16
26 27 27 26 27 27 28 29 29 29 29 28 27 26 25 23 23 19 17 12 2 6 10 15 14 8 8 10 16 18 6 0 2 4 6 7 7 6 7 11 17 16 17 17 19 18 18 13 16 15 11 5 7 7 6 10 11 9 10 10 11 11 12 14 14 14 11 8 6 6 9 7 13 15 10 11 15 16 16 16 17 16 16 16 17 16 16 16
27 27 26 26 26 27 28 28 31 30 30 29 27 24 22 22 19 16 8 5 2 4 12 17 10 7 9 11 2 3 12 5 5 5 8 8 9 7 8 11 13 12 11 13 13 13 14 11 15 14 10 9 7 5 7 5 7 10 10 10 10 10 10 8 7 8 11 7 8 9 9 8 7 12 8 13 16 17 17 17 17 16 17 16 17 16 16 18
26 28 27 26 27 27 27 28 29 30 30 29 27 23 21 18 15 12 5 3 6 11 15 15 7 7 7 10 11 9 7 6 11 12 10 12 8 9 9 12 13 11 10 6 8 11 10 12 13 13 11 11 7 4 10 8 8 8 8 11 10 11 9 8 7 8 12 10 9 8 10 10 2 9 9 12 13 15 14 16 17 17 16 17 17 17 16 17
25 27 27 27 27 29 28 28 29 30 30 28 26 24 18 13 11 5 7 7 12 16 12 8 6 7 7 11 3 10 8 13 15 16 12 12 10 7 11 12 11 10 9 7 3 5 6 10 13 11 9 9 10 9 8 9 10 9 11 10 13 12 11 10 12 9 12 10 7 12 9 7 5 6 11 11 12 14 13 14 16 17 18 17 16 16 15 16
25 26 26 27 28 29 30 28 29 30 29 28 25 22 12 8 9 5 7 11 9 6 6 2 7 5 6 4 4 7 9 13 6 12 15 14 12 6 11 12 11 12 10 5 7 8 10 11 9 10 12 10 11 11 11 12 11 11 11 11 10 11 11 11 8 7 7 9 10 12 12 12 5 6 8 10 10 12 12 13 15 15 15 16 15 16 16 17
25 25 27 27 28 29 29 29 30 29 29 29 25 20 10 4 3 4 8 8 2 4 4 2 5 4 14 13 6 3 5 9 9 9 15 14 15 11 12 11 10 13 11 8 8 12 12 11 11 11 10 13 13 14 15 16 14 11 12 11 12 10 9 9 10 9 8 8 11 10 13 12 11 4 8 9 10 11 12 12 14 15 15 15 14 15 17 17
29 27 27 26 27 28 28 28 29 29 27 26 26 12 1 2 5 6 5 4 5 5 6 8 7 9 4 4 10 3 4 4 5 9 11 13 15 14 13 9 12 15 12 11 10 14 11 10 10 12 15 16 16 17 16 11 12 15 12 11 12 12 13 14 11 6 6 7 10 13 12 11 9 8 8 8 10 11 11 11 12 14 15 16 15 15 15 16
28 28 28 27 26 27 28 27 28 28 26 19 12 4 6 3 5 5 5 7 12 13 15 3 14 14 6 6 4 3 3 6 8 10 10 12 14 17 15 13 14 14 14 12 14 15 11 14 15 17 15 16 18 18 15 16 7 8 12 12 13 14 12 11 10 3 4 9 12 13 14 13 11 9 4 8 10 11 11 12 12 14 15 16 16 16 16 17
26 26 27 27 27 27 27 26 29 27 25 14 13 6 6 9 9 6 14 18 18 19 19 21 18 16 15 1 4 1 6 11 9 9 12 13 15 18 15 16 16 15 16 16 12 12 12 15 17 18 17 15 17 17 17 16 12 11 9 12 12 14 13 12 10 7 5 7 10 10 11 12 12 11 10 9 11 12 12 14 15 16 17 16 18 18 17 15
27 27 26 28 27 27 27 27 28 25 23 10 9 8 6 7 4 8 6 12 9 13 17 21 17 19 18 19 12 0 4 4 10 11 11 17 18 19 17 17 19 16 16 17 13 14 16 19 17 17 17 14 14 16 17 18 14 13 12 10 12 13 13 12 10 5 6 6 10 11 14 15 14 13 13 10 13 11 13 14 15 16 17 15 16 18 16 15
28 27 28 27 29 28 29 25 25 20 9 7 9 8 6 7 6 5 8 12 19 13 17 19 18 21 19 14 15 11 13 13 11 15 14 16 18 19 19 17 18 17 17 20 17 16 15 17 19 17 16 17 15 14 16 16 14 12 13 13 14 12 11 11 13 12 11 10 10 10 13 11 12 12 12 10 13 12 13 15 15 15 17 17 17 16 16 17
27 27 27 29 29 29 27 26 23 12 5 6 8 10 6 7 6 7 8 8 13 16 16 16 18 17 18 15 10 17 19 14 13 14 16 17 17 18 16 23 21 19 18 24 23 18 17 7 18 19 18 18 17 16 16 14 14 16 17 15 14 13 12 12 2 5 5 8 11 11 13 14 14 15 13 13 14 13 13 14 14 14 14 15 14 15 16 19
27 27 27 27 29 29 31 24 7 11 8 6 4 11 8 8 6 5 8 8 10 12 5 10 9 10 10 8 9 15 16 13 16 13 15 19 18 17 16 16 15 20 20 23 22 19 18 12 4 19 20 18 18 16 18 15 14 14 19 19 15 13 14 10 12 8 6 10 11 11 10 14 14 17 17 11 11 13 12 13 15 15 14 14 15 16 17 17
26 27 27 25 27 27 33 11 9 12 12 2 10 13 10 9 6 5 6 6 10 3 7 7 8 4 9 11 11 12 9 15 18 15 14 17 16 16 11 15 14 19 24 21 19 14 14 14 12 16 18 18 20 18 17 18 14 14 13 17 18 16 13 12 9 10 12 12 7 8 11 12 10 15 11 8 10 13 12 13 14 14 14 14 14 15 16 17
25 26 27 25 24 25 12 7 10 12 7 6 13 13 10 8 5 6 5 6 9 6 7 6 6 6 6 10 13 13 9 10 13 16 17 19 19 15 16 15 14 12 14 11 10 15 14 16 15 16 18 18 17 18 17 18 14 14 8 9 15 19 17 14 12 12 11 10 11 7 8 12 13 13 10 9 12 12 13 13 13 14 15 15 15 16 16 17
25 25 25 27 25 20 7 9 9 9 9 12 13 12 11 6 4 4 5 6 4 8 6 6 3 4 5 10 14 15 6 10 11 17 19 18 19 16 17 20 19 21 18 16 19 11 19 18 19 19 17 14 15 16 15 18 15 11 9 6 9 14 17 15 13 11 11 12 13 13 15 13 15 14 13 12 13 13 14 14 15 15 16 16 16 16 18 18
23 23 23 26 26 24 8 6 8 8 11 13 13 12 7 6 5 6 6 7 5 4 3 7 2 6 4 9 13 18 4 3 6 11 20 18 22 13 16 19 17 18 20 20 16 12 13 19 19 19 16 14 13 14 16 18 16 15 4 4 7 9 12 14 12 12 12 12 17 14 14 14 16 13 13 14 16 15 14 14 15 17 17 16 16 17 18 18
23 21 22 21 20 7 3 8 7 7 13 13 14 12 12 6 6 6 6 9 2 3 1 5 6 3 7 10 10 14 14 6 2 6 16 16 21 18 11 12 15 17 19 17 19 16 9 11 15 14 16 15 12 12 14 17 17 11 12 9 9 10 9 10 11 10 10 17 18 16 17 16 16 14 14 14 13 13 14 13 13 15 17 18 17 17 17 17
22 22 21 19 9 7 9 7 7 13 13 13 15 15 7 5 6 7 11 2 5 7 4 5 4 6 4 7 7 13 14 12 6 11 14 13 18 19 11 12 14 12 15 16 18 22 11 10 14 13 16 12 12 12 13 13 15 15 9 10 9 9 9 8 8 10 13 16 12 16 16 18 17 17 13 15 13 14 14 14 14 14 18 17 16 16 17 18
24 24 22 16 8 6 7 10 14 12 12 16 16 10 6 8 9 12 8 7 9 7 6 6 2 5 6 4 9 8 13 13 9 11 14 15 17 19 20 17 16 16 18 18 16 18 20 14 12 14 16 19 16 13 12 14 15 15 12 11 11 9 8 10 10 14 16 13 7 12 16 16 23 21 5 6 13 17 15 13 13 14 15 17 17 18 16 17
26 25 26 12 6 4 7 10 11 11 13 16 11 8 8 9 11 11 14 9 3 9 6 10 9 12 10 10 8 9 7 13 14 12 15 16 16 19 21 18 19 17 14 16 14 17 16 16 15 16 14 17 17 15 13 14 15 16 15 13 13 12 12 10 12 9 10 13 12 6 11 16 14 12 17 21 15 9 11 12 11 13 13 15 17 17 16 16
27 26 13 7 6 6 8 10 9 12 13 12 9 7 9 11 12 6 7 5 10 13 11 11 17 14 12 9 4 4 9 9 12 13 15 14 17 16 18 23 20 20 13 11 16 16 14 17 20 20 14 18 20 17 14 10 15 15 14 14 12 10 9 10 9 13 13 8 10 12 5 10 9 5 8 17 17 17 13 11 10 11 11 12 15 15 17 17
29 22 10 5 4 5 9 11 10 11 11 9 8 8 10 11 10 10 5 11 9 12 13 15 14 12 8 11 2 5 6 8 11 13 14 14 16 15 18 19 24 17 15 12 14 11 23 13 10 23 10 19 20 19 16 13 12 14 14 12 13 15 8 9 5 10 9 9 8 13 12 4 7 4 4 2 9 15 16 16 15 15 16 15 14 15 15 16
21 8 8 1 8 9 11 9 10 10 8 8 7 8 10 8 7 8 5 11 11 13 18 17 12 10 8 5 6 3 5 7 12 10 11 14 13 16 16 15 20 21 14 16 8 14 11 15 11 21 20 17 21 19 18 15 12 13 14 17 16 11 12 10 8 5 7 6 11 8 12 13 10 10 9 7 6 8 10 11 12 12 14 14 14 14 16 16
10 11 5 7 8 12 12 10 8 8 7 7 7 9 5 6 5 7 8 11 14 15 13 9 0 5 5 6 4 3 1 6 7 11 11 13 11 3 2 3 8 12 9 6 13 11 10 9 12 16 24 18 19 20 20 20 12 10 15 15 12 12 12 10 10 7 10 12 10 11 15 11 10 10 11 19 18 16 16 15 14 13 13 14 14 14 15 16
12 10 10 4 14 13 12 10 9 6 7 7 8 9 7 9 6 11 10 12 11 11 10 8 7 5 4 6 2 6 3 7 7 10 9 16 4 4 3 2 2 6 6 3 5 9 10 8 11 16 19 18 18 18 18 20 21 12 11 12 14 14 14 10 7 13 11 13 10 13 14 14 11 10 3 8 15 16 16 16 16 15 15 15 15 17 16 17
10 9 3 12 15 14 13 12 9 7 7 7 6 8 2 5 9 10 11 11 9 12 11 9 9 3 7 8 9 7 5 6 4 7 10 5 6 6 5 5 3 8 5 4 8 1 9 9 9 14 17 18 16 16 17 17 20 19 10 13 14 9 11 12 12 7 8 10 9 11 14 12 9 11 12 7 9 11 12 14 15 16 16 15 15 15 16 16
9 6 4 13 16 15 14 12 8 7 5 6 5 6 9 11 9 11 10 11 9 8 9 12 8 11 9 10 10 9 6 8 6 2 7 4 1 8 7 6 7 7 7 4 8 9 5 9 7 12 17 17 16 15 17 17 18 17 16 13 13 11 6 9 10 13 10 10 10 8 9 6 5 7 12 14 9 8 8 9 11 12 14 17 16 15 15 15
8 7 3 15 16 15 15 9 4 5 5 5 4 7 9 8 10 10 10 11 9 8 12 12 11 10 9 10 10 7 6 7 5 5 2 4 4 5 10 10 8 7 5 2 9 9 8 10 12 9 13 16 13 14 17 19 18 17 16 15 14 14 12 12 12 10 13 10 7 8 9 2 5 3 7 11 12 13 13 12 10 11 12 12 11 14 14 14
9 7 9 14 15 16 12 6 4 5 5 6 7 8 8 10 10 10 11 9 10 9 9 11 13 13 11 11 10 8 8 8 5 7 1 3 8 8 8 11 10 8 6 9 14 2 5 4 12 10 11 11 13 15 17 17 18 19 17 16 16 15 12 10 9 11 11 12 11 10 9 6 5 6 3 2 3 6 9 12 12 10 10 11 11 11 10 9
7 7 10 11 14 15 10 3 4 4 6 6 9 8 8 7 9 10 12 9 10 8 9 9 10 11 10 10 9 10 8 8 4 5 5 4 8 9 9 11 12 6 6 3 2 3 5 6 8 12 7 7 11 12 17 19 20 19 19 18 18 18 16 12 10 6 9 10 12 9 11 4 5 4 6 9 9 9 6 8 11 10 8 6 5 4 6 6
8 9 7 5 9 12 6 8 8 8 7 10 9 9 6 8 9 10 8 10 6 7 8 9 8 6 10 8 9 10 6 7 5 5 4 1 4 7 9 11 13 6 9 5 4 5 8 12 11 11 8 6 8 9 13 17 17 15 15 17 19 18 19 16 13 10 11 12 13 10 12 5 6 5 2 2 5 6 6 5 5 8 8 7 4 3 4 5
9 4 3 7 6 7 8 6 7 7 8 11 11 10 9 6 6 9 10 9 6 7 9 8 9 11 9 8 11 10 8 8 7 4 6 3 4 5 8 11 10 8 9 9 10 5 5 8 15 14 17 16 17 17 17 18 18 13 14 17 21 21 21 17 15 12 10 10 14 12 9 3 7 5 6 6 7 5 4 4 4 5 4 4 2 3 3 5
8 8 9 7 7 4 5 5 5 7 8 9 10 8 9 9 6 7 9 7 4 9 5 8 11 11 8 10 10 9 8 8 9 2 4 4 3 3 7 7 8 9 13 11 11 5 4 3 9 10 9 11 4 5 8 5 14 16 18 19 19 21 20 18 12 13 13 11 14 14 11 6 7 6 8 7 5 6 6 6 4 4 3 3 4 3 4 4
6 6 9 10 8 1 9 4 7 7 7 8 7 8 10 11 10 7 8 6 6 9 7 7 11 10 10 9 5 6 7 8 6 6 2 5 3 5 3 5 4 10 13 7 9 5 4 6 6 4 2 3 3 4 6 6 6 16 20 20 17 18 21 21 18 15 9 10 13 11 12 14 8 6 7 7 7 3 1 3 2 1 4 7 5 2 6 6
6 6 6 3 7 7 10 7 10 10 10 9 6 7 9 11 11 10 9 5 11 6 7 3 7 11 11 11 11 5 3 7 5 6 3 1 7 4 2 4 4 7 9 6 7 5 2 7 4 5 3 3 3 3 3 1 2 1 5 11 18 16 17 21 20 18 15 13 11 7 13 14 13 11 6 6 6 6 7 7 4 6 8 5 3 6 7 4
4 6 4 5 7 8 9 11 13 11 11 7 6 5 8 10 11 9 8 10 8 4 8 5 8 9 10 9 8 6 8 5 5 6 4 6 7 6 4 4 6 7 6 6 6 6 6 2 3 2 5 4 3 3 2 4 2 6 9 8 9 12 15 16 16 17 21 16 13 13 10 13 13 15 16 14 10 9 9 10 13 15 13 12 11 8 7 5
5 6 5 7 7 10 9 9 9 9 8 5 5 4 8 9 10 11 8 9 9 4 8 8 9 8 8 8 7 6 6 8 8 6 8 11 8 1 5 3 5 5 7 6 5 5 6 4 3 5 5 5 5 6 3 6 5 7 9 10 11 11 11 13 13 15 14 16 19 17 17 16 10 10 11 11 12 12 13 13 14 15 18 18 16 13 11 11
4 4 4 6 8 7 8 8 8 8 7 3 5 6 8 8 9 10 11 9 7 6 7 12 12 10 6 7 7 7 6 7 9 11 11 10 8 6 7 3 8 9 7 6 4 5 6 3 2 3 5 7 7 8 7 4 7 10 11 13 14 15 16 13 13 13 14 14 14 13 14 12 9 11 10 12 11 10 11 12 12 13 16 16 17 17 15 14
3 2 3 4 6 7 8 8 8 8 5 4 6 9 8 10 10 10 10 3 4 6 8 10 12 10 8 6 7 7 8 10 11 12 11 11 12 11 10 11 10 8 7 6 6 5 4 5 3 3 6 7 6 4 5 6 7 12 17 17 17 17 16 14 14 14 15 13 15 16 13 8 9 9 10 9 12 14 14 13 13 14 13 14 15 17 17 17
Wind_Direction
355 354 352 350 347 346 344 342 341 340 338 334 330 327 324 321 319 319 319 319 319 319 317 316 316 316 317 317 317 319 315 302 291 262 230 245 269 147 156 127 161 179 171 165 149 158 164 171 177 170 181 180 198 209 171 212 199 219 226 246 236 279 254 70 19 40 64 37 76 158 177 189 155 163 144 177 168 158 152 176 138 133 127 86 113 136 143 149
354 352 351 349 347 345 342 341 339 338 335 330 327 324 321 319 319 317 316 318 317 316 316 314 314 314 314 315 316 316 311 289 277 265 245 240 159 163 146 153 161 173 182 164 162 169 165 174 173 174 177 194 154 201 160 192 194 215 223 246 271 159 65 14 61 46 358 41 13 347 199 234 172 184 156 192 171 157 167 166 159 148 127 114 132 138 149 154
352 351 350 348 346 343 341 339 338 335 330 327 323 319 318 317 316 316 316 315 315 314 312 313 311 310 311 313 311 309 296 293 269 260 268 235 199 163 152 160 167 173 184 172 175 173 175 171 167 179 182 193 176 179 188 173 197 219 255 242 238 40 91 126 149 5 356 343 356 5 217 232 140 189 151 224 168 176 184 168 172 164 147 144 141 150 151 159
352 350 348 347 345 342 339 336 334 331 326 323 320 318 316 315 313 315 315 313 312 310 311 309 308 306 305 307 315 306 286 276 271 258 77 32 158 154 166 164 168 180 182 183 180 183 177 169 171 185 180 214 184 197 185 179 203 183 230 241 288 54 239 153 252 7 12 348 354 354 63 237 175 196 196 211 208 202 216 190 181 172 161 151 152 156 157 164
352 350 347 345 344 340 337 334 330 327 324 321 318 315 315 311 313 315 311 309 308 306 305 305 302 302 301 300 304 289 288 288 300 87 91 95 146 160 166 171 175 181 187 181 180 190 180 173 176 192 195 199 185 194 209 188 214 223 232 243 267 203 246 117 185 12 333 332 323 356 265 246 147 215 220 223 222 187 203 193 190 169 162 156 158 161 164 167
351 349 346 344 342 339 335 331 327 324 322 318 316 315 312 312 313 313 309 306 302 302 301 298 296 292 293 299 289 263 267 248 67 108 87 103 147 167 167 174 181 189 188 182 184 182 179 177 179 192 200 212 190 202 195 212 193 243 225 239 245 259 270 291 259 252 293 307 320 314 337 271 193 223 219 225 217 349 33 140 174 165 161 159 158 161 169 171
350 349 346 343 341 337 333 328 325 323 321 317 315 313 313 314 314 309 307 301 297 294 294 290 285 279 284 288 262 250 233 273 272 119 146 139 158 164 170 173 182 197 192 182 185 178 184 180 190 191 197 211 201 212 194 198 197 235 257 224 225 235 247 253 259 270 274 280 285 294 300 257 231 246 213 225 209 242 180 141 153 149 155 156 162 168 173 174
350 348 346 343 339 336 332 327 324 323 321 318 316 314 314 315 314 309 306 301 298 293 287 280 273 265 274 250 221 224 230 244 256 169 153 146 166 167 166 176 182 193 193 189 179 184 181 187 191 190 208 205 192 207 172 202 200 223 241 248 258 248 253 256 257 259 265 269 270 267 267 255 241 252 242 216 210 205 162 152 144 148 157 163 166 169 172 173
349 347 345 342 339 335 330 326 323 322 321 319 315 315 316 314 312 309 303 299 295 292 280 267 247 236 234 259 242 268 247 248 269 269 251 196 192 163 166 172 189 189 193 191 184 184 184 192 197 196 206 208 188 208 185 202 209 222 240 250 249 248 256 258 263 260 260 266 258 257 254 259 252 241 249 240 203 193 165 151 149 153 160 167 170 171 173 175
349 347 344 342 339 335 330 326 324 323 321 319 317 316 316 316 312 305 303 298 294 289 273 245 222 204 195 210 224 251 286 50 105 219 201 198 177 166 177 175 182 191 191 192 188 187 193 186 201 193 254 226 187 211 195 212 322 177 234 246 258 264 268 258 259 261 262 259 255 253 261 266 241 222 238 215 204 168 163 155 156 159 166 170 172 174 175 178
348 346 344 341 338 334 329 326 324 322 322 319 318 318 318 313 309 306 303 297 288 283 254 218 196 192 203 227 231 238 83 244 67 92 162 181 167 170 180 181 182 187 193 188 193 191 194 198 198 181 236 227 189 212 211 214 240 225 254 259 252 254 251 256 257 257 257 255 242 243 257 262 259 213 237 183 172 163 170 164 162 168 169 172 173 175 175 180
347 345 343 340 338 333 327 324 322 322 321 319 318 318 316 314 310 307 302 297 284 262 219 195 182 197 218 220 232 228 57 355 5 108 131 157 166 176 177 182 185 193 191 188 196 193 196 199 194 186 197 165 206 218 224 217 219 241 249 263 259 251 252 239 244 246 233 244 234 235 259 248 220 224 215 208 162 170 177 169 168 169 170 172 174 174 176 180
346 344 342 339 335 330 326 324 324 324 321 319 318 317 316 315 310 306 309 308 336 217 186 178 174 212 209 233 245 237 247 235 95 135 136 145 139 164 196 196 194 200 202 196 192 192 195 199 195 197 225 206 191 205 52 197 216 231 236 256 269 259 251 237 233 238 230 234 239 213 252 235 213 213 207 175 171 179 179 177 174 171 171 171 174 177 177 179
345 343 340 336 332 328 325 324 325 323 321 320 317 316 315 315 308 310 325 342 349 164 163 164 180 193 225 242 88 74 229 204 153 178 169 143 156 156 188 186 190 199 206 214 203 192 193 196 196 216 225 223 214 134 229 172 201 219 228 232 246 251 240 202 217 202 226 177 197 217 257 250 207 175 178 169 179 184 186 180 178 174 172 171 175 177 180 182
344 342 339 335 331 328 326 328 325 322 321 319 317 317 316 312 306 310 265 275 112 131 142 158 193 178 218 261 255 223 155 235 229 210 182 173 160 144 167 172 178 188 181 207 205 192 198 199 202 215 213 216 282 204 219 217 195 221 211 214 220 236 233 171 185 181 234 146 207 206 252 252 240 146 169 169 185 191 192 186 181 177 176 173 175 178 181 184
343 341 337 334 332 329 327 330 326 323 321 318 318 316 313 301 292 281 352 89 127 136 147 169 196 248 296 268 153 103 177 203 219 210 198 200 190 176 156 174 170 175 177 176 199 182 197 205 211 209 212 193 218 222 219 214 216 209 227 225 219 214 230 217 185 210 227 250 192 223 251 245 131 125 155 174 186 193 201 193 186 182 180 175 176 178 179 181
343 340 337 333 333 329 329 330 326 323 322 317 317 312 313 278 262 95 125 136 142 171 225 287 172 218 254 95 114 220 207 210 214 191 204 210 205 182 155 159 177 176 187 176 206 183 186 205 199 211 226 221 204 217 222 222 214 209 206 235 240 218 205 227 125 206 182 222 223 208 242 251 273 146 164 175 188 194 208 198 192 186 183 181 180 180 179 183
343 339 336 333 332 331 329 330 326 324 321 318 315 304 299 283 279 186 192 207 171 224 222 262 211 225 243 246 244 215 186 189 181 188 198 201 206 203 173 170 167 170 172 181 185 194 180 203 189 215 198 217 207 204 213 212 208 206 199 216 224 232 240 241 203 154 220 192 248 235 234 244 252 215 177 180 192 202 209 203 194 190 186 184 186 186 184 184
343 339 334 333 332 331 329 330 324 325 321 316 300 276 1 241 233 243 268 191 214 175 206 181 184 193 9 166 206 107 167 102 167 179 176 190 190 192 182 185 167 167 181 196 172 199 170 207 192 215 211 202 209 209 215 220 215 223 216 218 226 222 211 226 233 152 221 230 237 237 247 246 233 233 183 190 197 206 210 205 196 194 191 186 189 192 190 188
341 338 332 332 333 331 331 329 324 323 322 320 322 277 208 294 227 183 194 234 243 250 286 309 209 265 301 214 188 226 53 194 203 198 171 178 170 176 187 182 168 183 183 197 165 205 170 206 199 208 210 205 209 215 218 222 241 257 231 226 229 230 235 227 223 141 213 257 248 254 254 258 262 273 207 196 193 203 208 202 199 198 196 193 193 194 194 192
339 336 333 331 333 333 329 331 325 322 318 310 303 359 30 359 343 334 333 285 260 256 256 261 242 237 244 355 90 60 220 193 228 177 180 161 176 168 176 176 174 192 196 195 180 182 194 215 215 210 211 209 208 210 218 228 223 233 229 226 231 230 236 228 230 173 205 239 250 260 269 264 258 248 241 202 199 199 202 207 205 202 201 198 196 195 195 190
339 335 333 332 333 333 329 332 324 318 310 289 26 53 59 31 347 313 305 303 282 254 247 244 247 245 243 251 246 158 300 270 198 191 160 178 174 184 168 188 181 194 185 195 186 185 203 218 214 207 210 215 215 210 213 220 219 224 236 232 238 234 238 241 237 174 220 246 256 257 265 264 262 256 256 217 203 201 207 208 207 204 203 202 200 198 189 185
340 334 334 331 334 333 329 328 320 309 312 20 33 32 31 356 324 305 276 276 280 248 235 236 232 236 240 233 235 231 248 231 207 186 173 193 175 206 165 190 188 194 184 197 196 191 209 223 216 210 207 213 215 211 207 214 224 227 225 231 232 232 231 220 216 215 226 239 258 256 266 269 266 260 252 236 213 206 206 210 212 208 206 203 202 196 191 186
339 334 331 333 331 334 323 328 305 291 358 354 35 31 7 335 337 314 272 271 296 293 228 223 221 228 224 208 201 201 211 226 227 207 174 194 187 195 185 195 191 197 196 199 205 202 209 203 205 210 210 208 204 199 205 212 220 225 233 233 234 232 230 247 174 163 215 229 245 261 265 265 254 251 240 222 214 211 205 207 213 215 212 210 206 199 194 190
336 332 331 331 332 332 324 320 321 360 320 260 18 12 355 338 326 337 294 271 229 251 196 223 201 235 227 189 152 188 212 234 221 220 180 193 187 190 204 191 201 203 204 199 207 220 223 209 171 203 207 202 206 212 213 216 227 224 226 233 237 240 244 226 251 247 233 238 208 227 254 251 245 243 245 231 191 207 200 202 206 207 208 204 206 200 198 199
335 330 329 331 330 336 314 296 24 332 312 320 1 347 341 334 330 305 275 273 273 214 145 190 171 175 151 177 170 201 183 227 211 212 194 197 202 201 180 203 203 203 204 197 207 223 226 204 190 200 197 201 212 223 212 210 225 227 222 218 233 241 238 243 227 235 243 247 229 217 250 258 248 244 228 224 192 206 191 203 204 200 205 204 204 202 198 197
333 330 326 330 331 337 332 18 327 314 334 348 338 331 331 326 322 265 260 232 258 158 141 73 216 110 238 151 178 166 197 224 180 198 202 186 201 201 209 196 191 228 201 199 209 218 214 209 186 194 198 208 214 221 211 206 220 231 223 220 216 222 230 230 235 242 258 264 263 196 229 264 261 244 232 197 211 204 191 195 204 201 204 206 205 204 201 199
330 328 324 326 329 330 288 301 318 329 350 323 320 322 320 322 292 253 250 292 254 123 124 168 23 145 252 165 180 193 68 94 154 192 197 183 201 196 223 204 199 199 196 194 217 195 200 201 191 194 200 203 215 213 202 201 217 224 212 214 222 218 223 229 236 244 247 252 243 234 229 250 251 251 241 236 223 212 205 198 196 203 203 205 206 207 204 203
325 322 322 322 326 306 276 278 308 313 332 321 311 317 316 303 273 257 278 268 99 95 0 124 316 185 112 167 191 220 173 198 295 144 184 186 202 202 207 217 206 207 208 208 218 193 200 213 198 201 196 210 212 205 206 199 214 220 217 202 227 217 222 230 237 239 243 241 244 234 225 245 253 246 237 217 228 221 217 210 201 196 200 202 207 208 207 203
321 318 317 320 319 279 261 286 248 307 324 318 311 306 300 265 228 228 205 242 239 168 13 108 205 100 150 175 199 214 227 219 136 149 189 190 187 213 233 223 217 209 214 211 226 227 205 204 209 204 208 216 205 206 207 205 214 217 200 208 203 214 219 221 231 239 241 244 240 234 231 238 263 244 236 223 211 220 229 221 213 199 198 201 206 207 205 203
318 318 314 321 304 328 302 290 347 336 319 313 308 301 272 229 235 236 226 218 357 70 220 100 109 231 182 223 211 188 220 212 173 164 169 188 186 200 198 200 220 221 217 210 216 228 198 198 206 206 214 216 214 209 210 210 202 215 192 211 217 212 218 218 219 215 236 244 233 227 230 229 249 252 233 239 239 215 221 231 220 201 196 199 202 207 207 203
319 318 315 317 284 294 303 318 323 320 319 310 306 297 247 235 213 224 213 79 250 36 0 13 338 352 298 309 279 176 194 209 206 181 179 186 180 188 195 197 179 195 208 204 211 210 220 207 205 204 203 211 196 215 192 194 200 206 202 205 208 191 184 208 201 213 222 240 228 227 222 230 232 246 262 230 224 229 223 229 230 211 202 197 197 204 205 203
320 317 314 289 266 259 289 307 308 314 314 308 302 276 239 238 235 220 247 296 84 0 4 323 329 315 301 287 232 211 204 211 179 198 190 190 199 198 200 209 190 205 199 193 206 196 221 211 198 202 200 201 205 202 185 194 196 199 203 198 201 197 194 210 209 228 243 230 229 237 222 243 255 263 231 239 233 238 227 221 229 226 214 196 197 200 203 202
316 317 314 334 297 288 296 301 309 312 317 309 289 266 234 242 235 43 278 23 339 348 316 332 321 306 271 250 136 188 197 226 186 187 192 188 202 196 200 211 207 204 231 186 206 195 198 203 208 189 202 184 205 209 198 198 188 200 203 207 209 216 204 206 211 214 225 243 192 192 206 236 222 231 235 224 225 219 216 223 223 224 224 205 200 198 202 200
312 302 308 296 288 306 320 319 313 317 306 298 278 262 245 239 263 281 281 3 340 337 326 322 301 292 268 238 228 221 323 181 199 193 196 194 197 206 196 199 207 213 209 227 199 211 214 227 190 193 193 180 199 199 211 185 196 197 200 213 217 216 218 236 217 237 228 218 201 192 213 202 217 107 56 65 196 206 220 228 227 223 220 212 199 198 199 202
301 342 318 299 333 337 323 326 313 310 295 285 276 257 245 254 261 23 354 353 336 338 327 315 267 259 258 232 143 256 150 312 169 215 196 205 197 205 199 200 204 205 209 216 185 209 203 222 174 181 200 192 194 191 203 190 200 182 198 210 212 205 221 236 255 291 312 276 233 201 227 241 282 262 229 212 211 202 198 207 210 213 212 210 205 200 200 203
334 324 336 336 335 341 327 320 317 296 269 267 269 259 288 301 17 357 338 334 337 320 320 319 183 337 246 238 170 155 3 277 198 213 201 192 190 54 143 68 5 208 233 279 218 214 213 204 171 174 193 194 192 194 197 195 219 164 205 206 200 215 232 229 244 204 222 236 233 213 232 229 219 260 218 217 216 216 219 220 219 212 206 204 205 203 201 204
321 319 289 300 355 335 331 324 307 277 265 267 260 267 318 287 327 335 331 315 318 318 304 294 302 300 307 323 194 7 343 264 147 201 219 185 165 354 339 350 83 4 349 300 297 186 218 206 169 186 187 186 186 189 202 204 210 220 206 177 195 183 207 210 235 227 216 226 239 231 236 242 229 230 158 207 216 215 216 214 218 217 212 208 202 203 206 208
313 309 300 20 347 338 331 317 292 276 276 259 263 259 190 324 323 313 330 322 302 296 288 279 291 268 330 308 327 305 331 268 1 225 221 158 219 44 45 331 175 3 335 308 233 211 197 227 154 184 191 176 187 191 204 195 198 224 220 207 204 211 210 198 207 242 235 244 234 234 224 241 215 239 235 220 213 219 213 212 216 218 212 209 206 205 204 205
341 332 11 15 349 333 326 305 277 269 269 275 306 312 336 321 326 328 318 322 309 299 274 289 291 289 285 288 316 300 326 299 290 327 276 60 72 48 37 13 357 333 341 270 260 238 218 227 237 166 190 173 196 194 205 189 188 195 205 212 190 214 203 227 203 218 221 236 243 255 239 230 226 215 222 224 213 199 207 212 212 221 222 214 211 208 200 201
310 284 4 12 345 332 317 288 285 329 317 316 308 334 323 327 324 310 315 314 297 280 282 280 282 270 292 297 287 285 302 295 279 268 337 112 358 158 40 2 336 339 311 201 223 214 233 196 225 158 186 192 204 190 205 195 195 197 197 206 195 192 196 199 213 203 230 235 239 242 249 280 104 216 193 223 219 230 230 227 216 215 220 225 218 208 203 198
333 338 1 354 340 328 322 310 28 349 333 352 341 332 324 325 303 318 324 319 297 291 274 277 266 270 271 279 288 290 298 286 294 279 39 334 64 20 33 349 351 308 281 193 202 124 305 258 215 201 194 198 209 183 202 208 197 199 196 202 195 202 209 204 211 195 212 233 250 251 275 257 64 101 124 101 221 229 234 226 225 220 220 214 219 217 203 206
353 323 327 338 338 326 314 320 8 344 1 356 331 301 316 305 314 329 322 338 321 316 285 260 272 279 267 283 291 281 277 282 318 272 69 94 59 30 9 358 341 349 281 70 326 57 251 221 206 229 201 198 214 182 194 211 204 205 209 211 202 208 203 211 220 210 218 215 222 228 240 236 130 163 229 228 230 237 226 217 225 226 215 213 213 213 164 175
331 318 326 353 344 332 338 15 351 351 350 338 338 324 331 326 333 329 332 346 347 327 318 299 270 267 285 290 287 273 269 273 157 302 190 345 86 19 15 5 350 31 348 53 300 60 207 207 227 198 212 173 193 182 205 209 216 218 208 204 213 210 208 217 227 231 240 221 224 218 235 225 167 157 177 216 209 223 221 205 216 229 231 239 249 145 160 180
325 293 343 354 3 351 19 14 357 342 349 339 334 329 346 328 358 330 336 333 355 347 324 325 328 313 277 283 272 262 265 263 294 102 330 37 59 20 29 7 2 23 11 6 331 307 268 201 198 210 201 195 190 192 196 196 205 207 222 207 208 212 205 207 215 214 229 219 224 229 230 212 98 201 197 214 207 213 234 234 182 203 232 262 251 162 183 203
2 340 354 340 350 346 32 10 1 347 338 341 330 345 332 328 344 351 343 322 7 341 332 316 350 323 298 312 249 243 262 251 266 306 267 188 30 63 14 9 15 14 355 336 336 289 242 269 226 237 247 231 230 34 27 316 191 206 201 217 205 209 211 215 221 221 216 214 233 231 240 229 165 176 188 187 189 194 196 201 209 232 249 207 180 213 196 180
321 354 348 343 324 23 350 341 355 344 337 338 317 333 324 335 341 338 9 318 356 345 332 41 356 358 353 337 335 293 246 267 240 256 263 312 336 352 34 10 27 19 334 332 353 299 233 206 206 262 259 359 0 331 16 356 211 198 206 204 216 209 210 216 216 220 209 221 233 221 215 234 219 175 181 174 161 172 305 302 280 260 13 332 342 153 197 195
348 5 341 1 308 325 334 339 344 326 321 316 315 316 320 332 339 342 349 354 334 354 331 118 24 5 357 348 327 288 311 270 260 252 324 319 316 342 211 101 15 30 340 20 360 355 310 223 153 254 235 342 314 321 343 351 257 306 216 201 205 214 218 220 223 226 221 224 236 207 216 225 231 226 189 204 231 233 232 248 292 337 307 299 323 329 308 215
347 330 332 356 313 328 312 310 310 311 310 323 312 313 327 332 334 354 344 323 326 1 14 338 355 4 348 343 343 317 360 301 196 15 320 349 318 328 254 168 114 20 358 4 10 5 303 217 43 254 296 288 247 254 237 228 224 226 229 226 219 218 222 229 234 232 231 236 242 248 239 234 229 236 245 250 248 260 279 294 295 291 292 304 305 297 279 261
359 337 332 332 311 299 304 307 308 311 310 337 298 24 335 330 329 342 336 324 314 351 7 341 345 352 338 330 324 311 319 325 332 318 340 339 309 275 309 314 343 22 352 1 346 22 310 84 16 324 287 235 222 229 219 228 229 244 240 243 237 233 233 230 233 237 248 250 244 240 243 248 237 248 258 259 258 256 258 259 267 286 294 292 290 285 273 273
332 320 318 311 308 313 312 309 315 318 311 325 303 349 330 333 330 337 321 318 337 358 349 334 335 330 324 307 301 297 313 314 307 302 307 308 291 330 325 301 350 329 345 338 1 332 306 333 339 289 254 226 199 214 218 243 258 253 245 237 231 226 227 218 223 224 230 234 245 250 249 244 246 246 254 255 252 258 263 266 268 267 271 275 275 273 271 278
311 302 283 295 289 312 307 309 300 300 299 348 322 324 317 320 319 324 322 14 127 211 302 323 320 310 298 284 290 298 303 301 296 290 287 283 282 285 279 280 294 302 313 307 333 300 320 320 293 234 230 223 148 198 229 260 271 251 233 226 226 226 231 231 231 227 230 234 238 236 241 253 252 246 241 234 248 253 256 260 264 265 267 270 271 272 277 282